Location: Giara
(45.4500°N, 11.1833°E)
Time: 06:22:37
(UTC+00:00)

Daily predictions for brighter satellites

Satellite Brightness Start Highest point End
(mag) Time Altitude Azimuth Time Altitude Azimuth Time Altitude Azimuth
MOS 1 4.4 18:42:41 10° SSE 18:48:16 67° ENE 18:53:55 10° N
Genesis I 3.2 18:45:58 10° NW 18:49:52 87° NE 18:53:45 10° SE
CZ-2C R/B 4.0 18:46:01 10° S 18:50:36 46° W 18:55:11 10° NNW
USA 276 3.3 18:50:49 10° WNW 18:53:49 36° N 18:56:48 10° ENE
X-37B 0.5 18:51:19 10° W 18:54:28 84° S 18:57:38 10° E
Cosmos 1980 Rocket 2.3 18:48:56 10° NNW 18:54:35 64° ENE 19:00:10 10° SE
Cosmos 1727 Rocket 4.5 18:50:28 10° NNW 18:56:48 69° W 19:03:04 10° S
Lacrosse 5 2.5 18:52:30 10° NW 18:57:25 47° NNE 19:02:18 10° ESE
IRIDIUM 104 4.3 18:52:42 10° S 18:57:53 75° E 19:03:06 10° N
CZ-2C R/B 4.4 18:54:52 10° NNE 18:58:58 32° E 19:02:59 10° SSE
Resurs 01 Rocket 2.6 18:58:01 10° SE 19:01:53 31° ENE 19:05:48 10° N
Cosmos 1833 Rocket 3.2 18:57:06 10° SW 19:02:41 66° WNW 19:08:19 10° NNE
USA 238 DEB 3.7 18:59:34 10° SSW 19:06:01 60° ESE 19:12:44 10° NE
USA 238 3.7 18:59:41 10° SSW 19:06:08 59° ESE 19:12:50 10° NE
SPOT 3 Rocket 3.8 19:01:42 10° SE 19:06:44 52° ENE 19:11:46 10° N
Cosmos 1697 Rocket 3.3 19:01:24 10° NNW 19:06:55 59° WSW 19:12:24 10° S
IRIDIUM 114 4.4 19:01:48 10° S 19:07:01 89° ESE 19:12:17 10° N
GP-B 4.3 19:03:59 10° NNE 19:07:35 23° E 19:11:09 10° SE
Cosmos 1867 3.6 19:02:43 10° SW 19:08:09 89° WNW 19:13:40 10° NE
MOS 1 Rocket 4.2 19:03:15 10° N 19:08:37 65° WNW 19:13:46 10° SSW
CENTAUR R/B 2.9 19:04:31 10° S 19:09:48 38° ESE 19:15:56 10° NE
Cosmos 1666 Rocket 3.5 19:05:45 10° S 19:10:00 64° E 19:14:20 10° NNE
Cosmos 1954 Rocket 4.0 19:07:30 10° S 19:12:45 64° ESE 19:18:02 10° NNE
DMSP B5D2-2 4.0 19:09:45 10° NNE 19:15:01 76° ESE 19:20:16 10° S
FREGAT/IRIS 3.5 19:14:07 10° S 19:16:37 42° W 19:19:10 10° NNW
Cosmos 1821 Rocket 4.1 19:11:19 10° S 19:17:29 83° W 19:23:48 10° N
Ariane Rocket 3.6 19:12:39 10° S 19:17:38 59° WSW 19:22:38 10° NNW
Cosmos 405 Rocket 3.8 19:15:00 10° SE 19:17:58 24° E 19:21:01 10° NE
Intercosmos 25 3.3 19:15:47 10° NNW 19:19:24 66° W 19:22:32 10° S
Cosmos 1812 4.0 19:17:16 10° NNW 19:20:56 42° W 19:24:34 10° SSW
Cosmos 407 Rocket 4.5 19:18:02 10° SW 19:23:13 53° WNW 19:28:24 10° NNE
SJ-6B 3.7 19:21:43 10° S 19:25:38 51° W 19:29:30 10° NNW
Cosmos 2333 Rocket 4.5 19:26:39 10° NNE 19:28:27 11° NE 19:30:16 10° NE
NOSS 2 (A) 4.2 19:26:25 10° NW 19:28:55 66° SW 19:30:21 20° SSE
Cosmos 1140 Rocket 4.2 19:24:04 10° SW 19:29:14 59° WNW 19:34:27 10° NNE
Cosmos 1763 Rocket 4.1 19:24:20 10° N 19:29:24 41° ENE 19:33:12 16° SE
Cosmos 1437 Rocket 4.2 19:27:18 10° NNE 19:30:17 22° ENE 19:31:55 17° ESE
Resurs 1-3 3.6 19:26:18 10° SSE 19:30:40 88° ENE 19:35:05 10° NNW
OBJECT-B 1.0 19:30:02 10° S 19:33:18 73° WSW 19:36:37 10° NNW
Cosmos 2084 Rocket 3.6 19:30:50 10° SSW 19:34:50 46° ESE 19:38:55 10° NE
H-2A R/B 4.2 19:31:48 10° NNE 19:35:32 32° E 19:38:17 16° SSE
Cosmos 1633 Rocket 3.2 19:32:27 10° SSW 19:36:52 80° W 19:41:18 10° N
Cosmos 1184 Rocket 2.7 19:34:28 10° S 19:37:45 88° W 19:41:04 10° N
SPOT 5 4.5 19:38:25 13° E 19:40:15 17° ENE 19:43:03 10° NNE
Cosmos 921 Rocket 2.8 19:37:39 10° NNW 19:41:53 85° ENE 19:45:04 17° SSE
Cosmos 2123 Rocket 4.1 19:36:48 10° N 19:43:04 86° W 19:49:21 10° S
Cosmos 1535 Rocket 4.5 19:37:08 10° S 19:43:16 90° ENE 19:49:24 10° N
MetOp-B 4.3 19:40:53 17° SE 19:44:58 57° ENE 19:50:13 10° N
Meteor 1-19 Rocket 4.4 19:46:14 10° N 19:51:32 51° ENE 19:54:58 22° SE
Cosmos 1605 Rocket 3.9 19:45:37 10° S 19:51:41 72° E 19:57:45 10° NNE
Okean 1 3.5 19:50:09 10° N 19:54:09 54° ENE 19:56:09 27° SE
CZ-2C R/B 3.7 19:49:34 10° N 19:54:32 47° WNW 19:59:32 10° SW
NOSS 3-2 (A) 3.8 19:50:33 10° SW 19:56:14 68° NW 20:02:47 10° NE
USA 267 3.5 19:51:51 10° ENE 19:58:00 42° SE 20:04:08 10° SSW
Cosmos 2219 Rocket 4.3 19:55:51 10° N 19:59:04 15° NE 20:02:18 10° ENE
Meteor 2-4 Rocket 4.3 19:54:56 10° N 20:00:07 38° ENE 20:02:34 25° ESE
Cosmos 540 Rocket 4.1 19:57:25 10° N 20:02:18 40° ENE 20:04:39 26° ESE
SL-16 R/B 2.3 19:57:35 10° NNW 20:03:15 67° ENE 20:06:28 26° SE
SL-4 R/B 3.5 20:00:15 10° WNW 20:03:51 32° N 20:07:12 10° ENE
BREEZE-M DEB (TANK) 3.3 20:02:00 10° WNW 20:04:45 51° N 20:11:52 10° E
SL-27 R/B 2.3 20:04:28 38° SSE 20:05:23 53° ESE 20:08:37 10° NNE
Cosmos 1470 Rocket 3.8 20:02:19 10° SSW 20:06:42 69° W 20:11:04 10° N
NOSS 3-2 (C) 3.4 20:01:08 10° SW 20:06:49 88° NW 20:13:24 10° NE
Cosmos 2242 Rocket 3.5 20:02:23 10° N 20:06:49 77° E 20:09:08 28° SSE
Cosmos 2082 Rocket 3.9 20:06:19 10° WSW 20:11:29 35° NW 20:16:40 10° NNE
BREEZE-M DEB (TANK) 2.8 20:10:01 10° WNW 20:12:15 34° N 20:12:31 32° NNE
ERS-1 Rocket 3.4 20:16:14 32° ESE 20:18:05 46° ENE 20:22:52 10° N
Meteor 1-14 Rocket 4.3 20:13:21 14° S 20:18:26 75° E 20:24:25 10° NNE
Cosmos 2322 Rocket 2.2 20:14:52 10° NNW 20:20:36 75° ENE 20:23:15 33° SE
Cosmos 1850 Rocket 4.1 20:18:20 10° SSW 20:23:38 80° WNW 20:28:56 10° NNE
Cosmos 1500 3.4 20:25:36 46° E 20:25:36 46° E 20:29:09 10° NNE
SPOT 1/Viking Rocket 3.5 20:23:32 32° SSE 20:25:59 79° ENE 20:31:14 10° NNW
Cosmos 841 Rocket 3.5 20:22:48 10° NNW 20:28:03 67° ENE 20:29:56 39° SE
Terra 2.6 20:27:56 32° E 20:28:58 36° ENE 20:33:19 10° N
Cosmos 2360 Rocket 2.6 20:24:14 10° NNW 20:29:45 50° ENE 20:31:48 34° ESE
USA 276 2.1 20:27:09 10° WNW 20:30:10 76° WSW 20:30:10 76° WSW
Meteor 1-18 Rocket 4.4 20:25:00 10° NNW 20:30:32 70° W 20:33:52 24° S
X-37B 1.6 20:27:58 10° W 20:30:22 35° SW 20:30:22 35° SW
IGS 5A 3.6 20:29:39 36° S 20:31:14 70° WSW 20:35:24 10° NNW
Okean 3 4.1 20:27:44 10° N 20:31:47 38° ENE 20:32:07 37° E
ATLAS 3B R/B 2.6 20:25:29 10° SSW 20:31:52 54° ESE 20:38:19 10° NE
Cosmos 1238 Rocket 3.9 20:30:32 16° SW 20:32:23 30° WNW 20:35:07 10° NNW
USA 234 3.8 20:29:00 20° E 20:33:25 52° NNE 20:39:44 10° NW
Cosmos 2237 4.4 20:28:18 10° NNW 20:33:57 59° ENE 20:35:58 38° ESE
Cosmos 1666 4.3 20:37:36 22° ENE 20:37:36 22° ENE 20:39:35 10° NNE
Cosmos 1980 Rocket 4.3 20:33:58 10° NW 20:38:02 21° W 20:42:04 10° SSW
Resurs 01 Rocket 3.3 20:34:56 12° SSW 20:38:21 28° W 20:42:13 10° NW
Iridium 4 Rocket 3.5 20:38:44 41° E 20:38:44 41° E 20:42:32 10° NNE
Cosmos 44 3.4 20:34:03 10° NW 20:39:00 75° WSW 20:40:36 44° SSE
Lacrosse 5 2.6 20:35:36 10° WNW 20:40:22 42° SW 20:41:50 33° S
CARTOSAT-1 3.5 20:40:31 57° SE 20:41:17 73° ENE 20:45:36 10° N
CZ-4B DEB 4.5 20:46:38 73° NNW 20:46:38 73° NNW 20:49:41 10° NNW
Cosmos 2061 Rocket 4.1 20:50:45 43° SE 20:52:18 54° E 20:58:19 10° NNE
Spot 2 Rocket 4.2 20:51:18 28° SSW 20:53:38 49° W 20:58:35 10° NNW
Cosmos 1814 Rocket 3.9 20:50:28 10° NNW 20:55:43 88° WSW 20:56:56 55° SSE
COSMOS 2428 3.9 20:51:05 10° N 20:56:06 30° NE 20:57:48 26° E
Cosmos 1802 Rocket 4.0 20:54:58 41° SSE 20:57:16 71° E 21:03:35 10° NNE
Cosmos 1869 Rocket 3.7 20:57:44 47° SSW 20:58:54 71° W 21:03:23 10° N
Cosmos 2237 Rocket 4.3 20:56:45 10° N 21:00:05 16° NE 21:02:46 12° ENE
CENTAUR R/B 3.5 20:54:21 10° WSW 21:00:15 50° NW 21:07:14 10° NNE
Okean 1-7 4.0 20:56:36 10° NNW 21:00:41 42° W 21:01:52 34° SW
Cosmos 44 Rocket 4.5 20:58:33 10° NNW 21:03:04 33° NE 21:04:15 30° ENE
Cosmos 1437 Rocket 4.3 21:03:18 10° NNW 21:06:32 27° W 21:07:19 25° WSW
Cosmos 2333 Rocket 2.7 21:08:43 10° NNW 21:14:17 47° ENE 21:15:19 42° E
ATLAS 5 CENTAUR R/B 2.5 21:11:23 10° NW 21:14:19 62° NE 21:14:58 55° E
Cosmos 1674 Rocket 4.5 21:10:28 10° N 21:13:55 37° NE 21:13:55 37° NE
SPOT 5 2.9 21:17:39 55° WSW 21:17:54 56° W 21:22:16 10° NNW
Cosmos 1066 Rocket 4.2 21:15:26 10° N 21:21:03 63° ENE 21:21:30 61° ESE
Cosmos 1486 Rocket 4.3 21:22:07 49° ENE 21:22:07 49° ENE 21:26:25 10° NNE
Cosmos 1733 Rocket 3.4 21:29:41 58° NNE 21:29:41 58° NNE 21:33:18 10° NNE
Meteor 1-11 Rocket 3.8 21:31:46 56° SSW 21:32:59 77° WNW 21:38:49 10° N
Cosmos 968 Rocket 3.8 21:37:25 52° ENE 21:37:25 52° ENE 21:41:32 10° NNE
Lacrosse 4 Rocket 2.1 21:37:37 53° N 21:37:37 53° N 21:41:04 10° NNE
Tsikada Rocket 3.8 21:31:29 10° N 21:37:51 87° E 21:38:46 67° SSE
ALOS 2 4.5 21:39:37 21° NE 21:39:37 21° NE 21:42:21 10° NNE
USA 267 3.5 21:34:44 10° NE 21:41:13 68° NNW 21:47:42 10° WSW
SL-4 R/B 3.4 21:40:27 10° WNW 21:42:59 32° NNW 21:42:59 32° NNW
Cosmos 2219 Rocket 2.2 21:38:26 10° NNW 21:44:08 69° ENE 21:44:23 68° E
SL-16 R/B 4.0 21:42:50 10° NW 21:46:46 20° W 21:48:19 18° WSW
Cosmos 1242 Rocket 4.4 21:48:47 10° NNW 21:50:53 31° NW 21:50:53 31° NW
Cosmos 1725 Rocket 4.3 21:55:18 48° SW 21:56:52 62° WNW 22:03:10 10° N
Meteor 1-23 Rocket 4.3 21:51:08 10° NNW 21:56:56 71° W 21:57:14 69° WSW
Cosmos 2322 3.7 21:51:51 10° NNW 21:57:25 67° WSW 21:57:25 67° WSW
Spot 4 4.3 21:58:19 56° NNE 21:58:19 56° NNE 22:02:24 10° N
Cosmos 1536 4.4 22:03:04 32° NW 22:03:04 32° NW 22:06:01 10° N
Cosmos 2322 Rocket 4.1 22:00:20 10° WNW 22:03:57 18° W 22:05:03 17° WSW
Cosmos 1378 Rocket 4.4 22:01:33 10° NNW 22:04:52 49° NNW 22:04:52 49° NNW
Terra 3.3 22:06:49 28° W 22:06:49 28° W 22:10:51 10° NW
Cosmos 2360 Rocket 3.6 22:08:45 10° NW 22:13:26 27° WSW 22:13:33 27° WSW
SL-16 R/B 4.1 22:11:34 10° N 22:15:49 21° NE 22:17:41 18° ENE
USA 234 3.2 22:16:20 62° SW 22:16:22 62° SW 22:22:51 10° NW
ATLAS 3B R/B 3.8 22:16:39 10° WSW 22:22:46 39° NW 22:29:00 10° NNE
MOS 1-B Rocket 4.0 22:17:14 10° N 22:22:47 64° WNW 22:23:10 62° W
Cosmos 1354 Rocket 4.4 22:23:58 62° NNE 22:23:58 62° NNE 22:28:23 10° NNE
Cosmos 1975 Rocket 4.3 22:24:22 10° N 22:27:17 38° NNE 22:27:17 38° NNE
Cosmos 2297 Rocket 3.5 22:32:12 30° ENE 22:32:12 30° ENE 22:35:32 10° NE
Meteor 1-21 4.4 22:27:42 10° N 22:33:00 69° NE 22:33:00 69° NE
Meteor 2-9 Rocket 4.4 22:35:06 64° NE 22:35:06 64° NE 22:40:05 10° NNE
Thor Agena Rocket 3.9 22:30:41 10° N 22:35:03 62° NNW 22:35:03 62° NNW
Cosmos 1980 3.9 22:31:45 10° NNW 22:36:58 65° NNE 22:36:58 65° NNE
Nimbus 7 Rocket 4.5 22:31:51 10° NNE 22:37:08 68° ENE 22:37:08 68° ENE
Timation 2 Rocket 4.0 22:39:51 65° ENE 22:39:51 65° ENE 22:45:03 10° NNE
COSMOS 2428 3.4 22:35:06 10° NW 22:39:48 47° W 22:39:48 47° W
Cosmos 2219 4.0 22:46:31 43° ENE 22:46:31 43° ENE 22:50:29 10° NNE
Cosmos 2237 Rocket 2.4 22:39:32 10° NNW 22:44:34 66° NNE 22:44:34 66° NNE
SJ 16-02 4.1 22:47:38 10° ENE 22:47:38 10° ENE 22:47:38 10° ENE
Cosmos 1464 Rocket 3.9 22:46:12 78° NE 22:46:12 78° NE 22:52:02 10° N
NOSS 0 Rocket 4.1 22:46:11 10° NNW 22:51:50 66° WNW 22:51:50 66° WNW
Nadezhda 4 Rocket 4.0 22:48:55 10° N 22:54:56 69° ENE 22:54:56 69° ENE
Cosmos 2333 Rocket 3.6 22:53:24 10° NW 22:57:19 28° W 22:57:19 28° W
ALOS 2 4.4 23:17:00 26° NW 23:17:00 26° NW 23:19:15 10° NNW
Lacrosse 4 Rocket 4.4 23:15:12 10° NW 23:16:24 11° NW 23:17:35 10° NNW
Cosmos 1092 Rocket 4.1 23:10:46 10° N 23:16:44 63° ENE 23:16:44 63° ENE
Cosmos 2034 Rocket 4.0 23:19:27 78° NW 23:19:27 78° NW 23:25:34 10° N
Cosmos 2227 Rocket 2.6 23:22:00 59° NE 23:22:00 59° NE 23:26:35 10° NNE
Cosmos 2219 Rocket 4.2 23:23:36 10° WNW 23:26:05 17° W 23:26:05 17° W
Meteor 1-12 Rocket 4.4 23:28:42 74° NNW 23:28:42 74° NNW 23:34:14 10° N
Resurs 1-4 Rocket 4.2 23:32:46 10° NE 23:35:32 15° E 23:35:32 15° E
Meteor 2-5 Rocket 4.5 23:31:40 10° N 23:36:52 43° ENE 23:36:52 43° ENE
Cosmos 2082 4.0 23:48:47 60° NE 23:48:47 60° NE 23:53:25 10° NNE
Cosmos 1607 4.1 23:41:40 10° NW 23:47:26 70° WNW 23:47:26 70° WNW
Cosmos 1375 Rocket 4.5 23:48:19 83° WNW 23:48:20 83° WNW 23:55:00 10° NNE
USA 229 DEB 4.0 23:53:16 50° E 23:53:16 50° E 23:59:13 10° NE
USA 229 4.0 23:53:24 49° E 23:53:24 49° E 23:59:18 10° NE
